BSAT-4B

Last updated on Sat Aug 22 2026 00:03:00 GMT+0000 (Coordinated Universal Time)

1 46112U 20056A 26233.36139654 -.00000352 00000+0 00000+0 0 9999 2 46112 0.0321 198.4759 0004395 304.1969 66.9401 1.00271998 22049
UTC large
Height (km)
Speed (km/s)
/
Latitude / Longitude
Inclination (degrees)
Orbital Period (minutes)
Azimuth
Elevation
Range (km)
Doppler Factor

Next 0 passes for location: London (51.5072 / 0.1276)

No passes found over London.
BSAT-4B